Location: Little Suamico
(44.7175°N, 88.0093°W)
Time: 20:04:06
(UTC+00:00)

X-37B - Pass Details

Date: 21 April 2021
Orbit: 386 x 389 km, 45.0° (Epoch: 08 May)

Event Time Altitude Azimuth Distance (km) Brightness Sun altitude
Exits shadow 08:10:11 16° 88° (E) 1,096 3.3 -25.1°
Drops below altitude 10° 08:11:00 10° 84° (E) 1,415 4.0 -25.0°
Sets 08:13:06 0° 79° (E) 2,270 5.2 -24.8°
